[[{"header":{"parameterUnit":"m.s-1","parameterCategory":1,"la1":30.2991,"la2":30.254,"lo1":-89.0895,"lo2":-89.0444,"dy":0.0017,"dx":0.0017,"nx":28,"ny":28,"refTime":"2024-02-12T09:00:00:Z","depth":0,"parameterNumber":2,"parameterNumberName":"U-component_of_WINDS"},"data":[0,0,0,0,0,0,0,0,0,0,0,0,0,0,0,0,0,0,0,0,0,0,0,0,0,0,0,0,0,0,0,0,0,0,0,0,0,0,0,0,0,0,0,0,0,0,0,0,0,0,0,0,0,0,0,0,0,0,-2.8341,-2.8342,0,-2.8404,-2.8405,-2.8406,-2.8293,-2.829,-2.8286,-2.8282,-2.8348,-2.8353,-2.8359,0,0,0,0,0,0,0,0,0,0,0,0,0,-2.8123,-2.8128,-2.8341,-2.8342,-2.8342,-2.8404,-2.8405,-2.8406,-2.8294,-2.8289,-2.8285,-2.8281,-2.8346,-2.8353,-2.8359,0,0,0,0,0,0,0,0,0,0,0,0,0,-2.8205,-2.8129,-2.8341,-2.8294,-2.8291,-2.8404,-2.8405,-2.8406,-2.8295,-2.8289,-2.8284,-2.8278,-2.8344,-2.8352,-2.836,-2.8522,0,0,-2.8384,-2.8387,0,0,0,0,0,0,0,0,-2.8201,-2.8214,-2.83,-2.8297,-2.8294,-2.8335,-2.8352,-2.8445,-2.8296,-2.8293,-2.8282,-2.8276,-2.8348,-2.8356,-2.838,-2.8525,-2.8528,-2.8385,-2.839,-2.8393,-2.8395,0,0,0,0,0,0,0,-2.8195,-2.821,-2.8366,-2.8302,-2.8298,-2.827,-2.8275,-2.8369,-2.8352,-2.8293,-2.8285,-2.8294,-2.8346,-2.8373,-2.8381,-2.8529,-2.8385,-2.8392,-2.8396,-2.84,-2.8809,-2.8815,0,0,0,0,0,0,-2.8195,-2.8206,-2.8364,-2.8368,-2.8232,-2.8279,-2.8285,-2.8328,-2.8351,-2.8349,-2.8299,-2.8289,-2.8362,-2.8372,-2.8383,-2.8573,-2.8393,-2.84,-2.8405,-2.8803,-2.881,-2.8817,0,0,0,0,0,0,-2.8191,-2.8211,-2.8361,-2.8285,-2.8302,-2.8288,-2.8337,-2.8332,-2.8359,-2.8355,-2.8351,-2.833,-2.8358,-2.8372,-2.8488,-2.8574,-2.8404,-2.8411,-2.8796,-2.8805,-2.8814,-2.8957,0,0,0,0,0,0,-2.8185,-2.821,-2.8271,-2.8287,-2.8306,-2.8466,-2.8343,-2.8337,-2.8372,-2.836,-2.8383,-2.8381,-2.8354,-2.8477,-2.8496,-2.8582,-2.8417,-2.8788,-2.88,-2.8811,-2.8944,-2.897,-2.8992,0,0,0,0,0,-2.8178,-2.831,-2.8275,-2.8295,-2.8383,-2.8471,-2.8482,-2.8448,-2.838,-2.8442,-2.8439,-2.8381,-2.8561,-2.849,-2.851,-2.86,-2.8782,-2.8796,-2.881,-2.8934,-2.8965,-2.8991,0,0,0,0,0,0,-2.8305,-2.8311,-2.8273,-2.8413,-2.8442,-2.8452,-2.8529,-2.8482,-2.8532,-2.8518,-2.8474,-2.848,-2.8606,-2.8614,-2.8534,-2.8757,-2.866,-2.8679,-2.8748,-2.8777,-2.88,-2.8796,-2.8424,0,0,0,0,0,-2.8349,-2.842,-2.8421,-2.8545,-2.8562,-2.8543,-2.858,-2.8551,-2.858,-2.8592,-2.8598,-2.8629,-2.8692,-2.8735,-2.8793,-2.8945,-2.8948,-2.9016,-2.904,-2.9059,-2.9076,-2.9156,-2.9187,-2.8862,-2.8862,-2.8862,0,0,-2.8441,-2.8453,-2.8501,-2.8571,-2.859,-2.8665,-2.8554,-2.8638,-2.8693,-2.8605,-2.8715,-2.8721,-2.8751,-2.8886,-2.8946,-2.8897,-2.9166,-2.9077,-2.9093,-2.9099,-2.9174,-2.9204,-2.9232,-2.8872,-2.887,-2.8868,0,0,-2.8647,-2.8664,-2.8768,-2.879,-2.882,-2.8807,-2.8832,-2.8849,-2.8849,-2.8959,-2.8894,-2.8958,-2.9069,-2.9093,-2.912,-2.9335,-2.9283,-2.9355,-2.9478,-2.9557,-2.9582,-2.9605,-2.9681,-2.9709,-2.9371,-2.9372,-2.9372,0,-2.8759,-2.8868,-2.8828,-2.8916,-2.8949,-2.8872,-2.8977,-2.9,-2.9049,-2.9073,-2.9017,-2.9154,-2.9169,-2.9308,-2.936,-2.9385,-2.9412,-2.9352,-2.9582,-2.9604,-2.9624,-2.9697,-2.9725,-2.938,-2.9379,-2.9378,-2.9378,0,-2.9003,-2.908,-2.916,-2.9208,-2.925,-2.9347,-2.9321,-2.9368,-2.9335,-2.9328,-2.944,-2.9456,-2.9515,-2.9546,-2.9515,-2.9681,-2.9649,-2.9589,-2.949,-2.9665,-2.9732,-2.9759,-2.9392,-2.9389,-2.9387,-2.9385,0,0,-2.9292,-2.9316,-2.9346,-2.9366,-2.9394,-2.9453,-2.9545,-2.9603,-2.9644,-2.968,-2.9756,-2.9851,-2.9794,-2.9825,-2.9796,-2.9865,-3.0033,-2.9796,-2.9796,-2.9839,-3.0216,-3.0262,-3.0294,-2.9999,-3.0004,-3.0008,-3.0213,0,-2.9496,-2.9656,-2.9622,-2.9779,-2.9849,-2.9777,-2.9857,-2.9883,-2.9878,-2.9937,-2.9931,-2.9999,-2.9919,-2.9937,-3.0002,-2.9999,-3.0109,-2.9984,-3.0069,-3.0073,-3.0064,-3.0329,-3.0378,-3.0571,-3.0239,-3.0244,-3.0247,0,-2.9757,-2.9802,-2.9965,-2.998,-3.0009,-3.0082,-3.0132,-3.0189,-3.0216,-3.0207,-3.0241,-3.0199,-3.029,-3.0191,-3.0316,-3.0232,-3.0265,-3.0268,-3.0275,-3.0282,-3.0171,-3.0343,-3.0632,-3.0661,-3.0288,-3.0285,-3.0282,0,-2.9951,-3.0052,-3.0163,-3.0182,-3.0203,-3.0256,-3.0267,-3.0289,-3.0326,-3.0369,-3.0392,-3.0446,-3.0476,-3.0519,-3.0492,-3.0421,-3.0621,-3.0519,-3.0617,-3.0618,-3.0663,-3.066,-3.096,-3.0684,-3.0684,-3.0683,-3.0682,0,-3.0183,-3.0286,-3.025,-3.0318,-3.0431,-3.0391,-3.0504,-3.0507,-3.0526,-3.0593,-3.0534,-3.0598,-3.0559,-3.062,-3.0599,-3.0706,-3.072,-3.0715,-3.0709,-3.0721,-3.0721,-3.0742,-3.0728,-3.0691,-3.0689,-3.0687,-3.0686,0,-3.0419,-3.0399,-3.0515,-3.0525,-3.053,-3.0613,-3.0621,-3.0684,-3.0674,-3.076,-3.0778,-3.0763,-3.0831,-3.0808,-3.0882,-3.0868,-3.1004,-3.098,-3.0995,-3.0989,-3.1087,-3.1078,-3.1411,-3.1452,-3.115,-3.1153,-3.1155,0,-3.0569,-3.0646,-3.0664,-3.0705,-3.072,-3.0786,-3.0823,-3.0787,-3.0827,-3.0864,-3.0923,-3.0986,-3.1035,-3.1148,-3.1143,-3.1199,-3.1176,-3.1288,-3.1184,-3.1193,-3.1177,-3.1173,-3.118,-3.131,-3.1313,-3.1316,-3.1318,0,-3.0836,-3.0822,-3.0878,-3.093,-3.0976,-3.1015,-3.1049,-3.1086,-3.1051,-3.11,-3.1169,-3.1207,-3.1282,-3.1345,-3.1395,-3.1406,-3.1357,-3.1351,-3.1376,-3.139,-3.1395,-3.1393,-3.1052,-3.1344,-3.1341,-3.1339,-3.1338,-3.1337,-3.1034,-3.1099,-3.1121,-3.1185,-3.1206,-3.1239,-3.1299,-3.1296,-3.1353,-3.1411,-3.1386,-3.1466,-3.149,-3.1552,-3.157,-3.1631,-3.1588,-3.1625,-3.1634,-3.1644,-3.1656,-3.1385,-3.1641,-3.164,-3.1639,-3.1638,-3.1638,0,-3.1298,-3.1308,-3.1367,-3.1416,-3.1466,-3.1415,-3.1449,-3.1494,-3.1565,-3.1592,-3.1641,-3.172,-3.1781,-3.1781,-3.1837,-3.1887,-3.1865,-3.1903,-3.1899,-3.1902,-3.1692,-3.1665,-3.1919,-3.1919,-3.1919,-3.1919,-3.1919,-3.1919,-3.1441,-3.1548,-3.1537,-3.1654,-3.1663,-3.1741,-3.1765,-3.1795,-3.1816,-3.1907,-3.1957,-3.1956,-3.1972,-3.2029,-3.2082,-3.2081,-3.2104,-3.215,-3.214,-3.1945,-3.1917,-3.189,-3.1864,-3.2156,-3.2156,-3.2344,-3.2346,-3.2347]},{"header":{"parameterUnit":"m.s-1","parameterCategory":1,"la1":30.2991,"la2":30.254,"lo1":-89.0895,"lo2":-89.0444,"dy":0.0017,"dx":0.0017,"nx":28,"ny":28,"refTime":"2024-02-12T09:00:00:Z","depth":0,"parameterNumber":3,"parameterNumberName":"V-component_of_WINDS"},"data":[0,0,0,0,0,0,0,0,0,0,0,0,0,0,0,0,0,0,0,0,0,0,0,0,0,0,0,0,0,0,0,0,0,0,0,0,0,0,0,0,0,0,0,0,0,0,0,0,0,0,0,0,0,0,0,0,0,0,-2.8618,-2.8619,0,-2.8711,-2.8712,-2.8713,-2.8687,-2.8685,-2.8683,-2.8682,-2.8776,-2.878,-2.8784,0,0,0,0,0,0,0,0,0,0,0,0,0,-2.8418,-2.8422,-2.8618,-2.8619,-2.8621,-2.8711,-2.8712,-2.8713,-2.8688,-2.8685,-2.8683,-2.8681,-2.8774,-2.8779,-2.8785,0,0,0,0,0,0,0,0,0,0,0,0,0,-2.8507,-2.8423,-2.8618,-2.8619,-2.862,-2.871,-2.8712,-2.8714,-2.8688,-2.8685,-2.8682,-2.868,-2.8773,-2.8779,-2.8785,-2.8881,0,0,-2.8805,-2.8808,0,0,0,0,0,0,0,0,-2.8502,-2.8515,-2.8617,-2.8619,-2.862,-2.8685,-2.8676,-2.877,-2.8689,-2.8662,-2.8682,-2.8678,-2.8748,-2.8756,-2.878,-2.8885,-2.8889,-2.8805,-2.8809,-2.8812,-2.8814,0,0,0,0,0,0,0,-2.8496,-2.851,-2.8655,-2.8619,-2.8621,-2.8614,-2.8623,-2.8694,-2.8719,-2.8664,-2.8662,-2.8674,-2.8748,-2.8773,-2.8782,-2.8891,-2.8805,-2.8811,-2.8815,-2.8817,-2.9079,-2.9082,0,0,0,0,0,0,-2.8489,-2.8505,-2.8652,-2.8658,-2.8553,-2.862,-2.863,-2.8667,-2.8719,-2.8724,-2.8676,-2.8672,-2.8764,-2.8774,-2.8785,-2.89,-2.8812,-2.8818,-2.8822,-2.9076,-2.908,-2.9083,0,0,0,0,0,0,-2.8485,-2.8502,-2.8648,-2.8581,-2.8599,-2.8626,-2.8667,-2.867,-2.8695,-2.8728,-2.8732,-2.8698,-2.8762,-2.8776,-2.8857,-2.8903,-2.8821,-2.8827,-2.9073,-2.9077,-2.9082,-2.9131,0,0,0,0,0,0,-2.8479,-2.8501,-2.8538,-2.8582,-2.8603,-2.872,-2.867,-2.8674,-2.8707,-2.8703,-2.8749,-2.8754,-2.8761,-2.8848,-2.8864,-2.891,-2.8832,-2.9069,-2.9075,-2.908,-2.9126,-2.9137,-2.9147,0,0,0,0,0,-2.8472,-2.8548,-2.854,-2.8558,-2.865,-2.8722,-2.8734,-2.8741,-2.871,-2.8748,-2.8768,-2.8753,-2.8895,-2.8856,-2.8874,-2.8923,-2.9066,-2.9073,-2.908,-2.9121,-2.9135,-2.9147,0,0,0,0,0,0,-2.8508,-2.8554,-2.8545,-2.8638,-2.8676,-2.8718,-2.8765,-2.8755,-2.8803,-2.8797,-2.8803,-2.8814,-2.8897,-2.8918,-2.8874,-2.9018,-2.8976,-2.8987,-2.9001,-2.9015,-2.9025,-2.9018,-2.8837,0,0,0,0,0,-2.8527,-2.8582,-2.8619,-2.8697,-2.8717,-2.8738,-2.877,-2.8771,-2.8811,-2.8827,-2.8854,-2.8893,-2.8947,-2.8982,-2.9033,-2.9129,-2.9138,-2.9171,-2.9182,-2.919,-2.9199,-2.9251,-2.9266,-2.9107,-2.9106,-2.9106,0,0,-2.8566,-2.8598,-2.8633,-2.8705,-2.8735,-2.8792,-2.8752,-2.8814,-2.8856,-2.8837,-2.8915,-2.8936,-2.898,-2.9069,-2.9109,-2.9089,-2.9246,-2.9199,-2.9206,-2.921,-2.926,-2.9275,-2.9288,-2.9111,-2.911,-2.911,0,0,-2.8667,-2.8697,-2.8765,-2.8796,-2.8842,-2.8855,-2.8871,-2.8914,-2.8928,-2.9006,-2.8993,-2.9043,-2.9136,-2.9168,-2.9196,-2.9308,-2.9295,-2.9325,-2.938,-2.943,-2.9443,-2.9454,-2.9494,-2.9508,-2.9334,-2.9334,-2.9334,0,-2.871,-2.8796,-2.8801,-2.8865,-2.8897,-2.8882,-2.8951,-2.8981,-2.9041,-2.9063,-2.904,-2.9155,-2.9184,-2.928,-2.9307,-2.9331,-2.9349,-2.9319,-2.9441,-2.9452,-2.9462,-2.95,-2.9515,-2.9337,-2.9337,-2.9337,-2.9336,0,-2.8846,-2.8905,-2.8955,-2.9014,-2.9051,-2.9117,-2.9132,-2.917,-2.9168,-2.9184,-2.9264,-2.9298,-2.9356,-2.9378,-2.9378,-2.9474,-2.946,-2.9439,-2.9397,-2.9481,-2.9516,-2.9531,-2.9342,-2.9341,-2.934,-2.9339,0,0,-2.8972,-2.9033,-2.9051,-2.9077,-2.9127,-2.9173,-2.9238,-2.9294,-2.9326,-2.9368,-2.9422,-2.9501,-2.9481,-2.9513,-2.9516,-2.956,-2.9646,-2.9533,-2.9534,-2.9552,-2.9755,-2.977,-2.9787,-2.9638,-2.9641,-2.9643,-2.9751,0,-2.9077,-2.9191,-2.9198,-2.9302,-2.9356,-2.9343,-2.94,-2.9436,-2.9452,-2.9501,-2.9518,-2.9574,-2.9544,-2.9563,-2.9606,-2.9627,-2.9687,-2.9619,-2.9688,-2.9691,-2.9678,-2.9806,-2.9823,-2.9923,-2.9765,-2.9767,-2.9769,0,-2.9214,-2.9261,-2.937,-2.9411,-2.9434,-2.9485,-2.9537,-2.9584,-2.9624,-2.9633,-2.9669,-2.9665,-2.9731,-2.9687,-2.9778,-2.9731,-2.976,-2.9774,-2.9778,-2.9785,-2.9735,-2.9816,-2.9955,-2.997,-2.9791,-2.9789,-2.9788,0,-2.9295,-2.9385,-2.9461,-2.9484,-2.9535,-2.9571,-2.9593,-2.9631,-2.9664,-2.971,-2.9732,-2.9784,-2.9813,-2.9854,-2.9864,-2.9831,-2.9955,-2.9911,-2.9963,-2.9963,-2.999,-2.9988,-3.0136,-3.0009,-3.0009,-3.0009,-3.0008,0,-2.9411,-2.9478,-2.9498,-2.9546,-2.962,-2.9627,-2.9701,-2.9721,-2.9755,-2.9806,-2.9797,-2.9845,-2.9856,-2.9906,-2.9914,-2.9988,-3.0001,-3.001,-3.0011,-3.001,-3.0009,-3.0029,-3.0022,-3.0012,-3.0012,-3.0011,-3.001,0,-2.9514,-2.953,-2.9613,-2.9654,-2.9666,-2.9719,-2.9754,-2.9799,-2.9814,-2.9878,-2.9893,-2.9917,-2.9975,-2.9989,-3.0058,-3.0064,-3.0151,-3.0146,-3.0138,-3.0137,-3.0189,-3.0184,-3.0354,-3.0377,-3.0235,-3.0237,-3.0238,0,-2.9587,-2.9638,-2.9685,-2.9718,-2.9742,-2.9796,-2.983,-2.9839,-2.9875,-2.9925,-2.9964,-3.0021,-3.0067,-3.016,-3.0184,-3.0236,-3.0232,-3.0288,-3.024,-3.0238,-3.0233,-3.023,-3.0235,-3.0298,-3.0299,-3.03,-3.0301,0,-2.9715,-2.972,-2.977,-2.9822,-2.9863,-2.9905,-2.9944,-2.9972,-2.9986,-3.0027,-3.0086,-3.0122,-3.0193,-3.0249,-3.0302,-3.0325,-3.0316,-3.0316,-3.0331,-3.0331,-3.0324,-3.0328,-3.0162,-3.0312,-3.0311,-3.031,-3.031,-3.0309,-2.9805,-2.985,-2.9889,-2.9945,-2.9976,-3.0013,-3.0057,-3.0078,-3.0127,-3.0186,-3.0188,-3.0252,-3.0291,-3.0362,-3.0388,-3.0438,-3.0421,-3.0442,-3.0448,-3.0453,-3.0457,-3.0316,-3.0448,-3.0447,-3.0447,-3.0447,-3.0447,0,-2.9932,-2.9957,-3.0008,-3.0064,-3.0107,-3.0094,-3.0138,-3.0175,-3.0232,-3.0269,-3.0314,-3.0382,-3.0437,-3.0465,-3.0519,-3.0554,-3.0551,-3.0568,-3.0565,-3.0571,-3.047,-3.0451,-3.0569,-3.0569,-3.0569,-3.0569,-3.0569,-3.0569,-3.0003,-3.0078,-3.0088,-3.0179,-3.0203,-3.0266,-3.0292,-3.0326,-3.0356,-3.0432,-3.0478,-3.0495,-3.0529,-3.0585,-3.0635,-3.0641,-3.0662,-3.0681,-3.0685,-3.059,-3.0578,-3.0566,-3.0549,-3.0685,-3.0686,-3.0782,-3.0783,-3.0784]}]]